NAYIF-1 (EO-88) (42017 NORAD) Tracking and Keplerian Element Data

This shows tracking and keplerian element data for the satellite.

Feedback or suggestion? Click here.




ElementValue
Catalog42017
NameNAYIF-1 (EO-88)
Epoch Orbit20464
Epoch Day294.60839891
Epoch Year2020
RAAN0.2845
Inclination97.3476
Eccentricity0.0004817
Argument of Perigee228.7752
Mean Anonmoly131.3072
Mean Motion15.26856834
Decay Rate2.116E-05
L11 42017U 17008BX 20294.60839891 .00002116 00000-0 82953-4 0 9992
L22 42017 97.3476 0.2845 0004817 228.7752 131.3072 15.26856834204645

Live tracking and technical data element details for NAYIF-1 (EO-88) (NORAD 42017). NAYIF-1 (EO-88) can be tracked NOW for your location showing map with azimuth and elevation plus other details from your city location.

Track the satellite on the map from your city or location and see movement details for azimuth, elevation, latitude, longitude, range, height, and movement on the map or in text.







IsCatalogInMostPopularTable: catalog: 42017, numindb: 473
Update: records affected: 1



GetName: 42017 NAYIF-1 (EO-88)

Hit Count: updated at: Thu, 22 Oct 2020 03:33:10 GMT